Location: El Portezuelo
(28.4984°N, 16.3589°W)
Time: 09:44:43
(UTC+00:00)

Cosmos 1953 - Pass Details

Date: 20 January 2020
Orbit: 539 x 558 km, 82.5° (Epoch: 18 February)

Event Time Altitude Azimuth Distance (km) Brightness Sun altitude
Rises 06:39:45 0° 199° (SSW) 2,709 5.8 -17.2°
Reaches altitude 10° 06:41:58 10° 206° (SSW) 1,822 4.8 -16.7°
Maximum altitude 06:45:48 43° 278° (W) 790 2.6 -15.9°
Drops below altitude 10° 06:49:40 10° 350° (N) 1,841 4.7 -15.1°
Sets 06:51:56 0° 357° (N) 2,741 5.7 -14.6°
